nws-alerts: Checking more than four warning/county codes can delay the loading of your pages. You should use a cron job to get the data.
EllijayWeather Station Historical Data
Daily Summary for November 27, 2018 Units:  English    Metric   Both
Daily Weekly Monthly Yearly Custom
  High: Low: Average:
Temperature: 37.9 °F 28.0 °F 32.9 °F
Dew Point: 27.9 °F 18.7 °F 23.4 °F
Humidity: 77% 55% 68%
Wind Speed: 8.9mph 0.0mph 0.4mph
Wind Gust: 12.0mph - -
Wind- - West
Pressure: 30.11 in 29.98 in -
Precipitation: 0.00 in    
Historical Graphs
 
 
Tabular Data for November 27, 2018
Time Temperature Dew Point Pressure Wind Wind Speed Wind Gust Humidity Rainfall Rate (Hourly) solar
00:04 35.1 °F 27.9 °F 30.01 in Calm   1.0 mph 75% 0.00 in meteobridge W/m2
00:09 34.9 °F 27.7 °F 30.01 in Calm   1.0 mph 75% 0.00 in meteobridge W/m2
00:14 35.1 °F 27.9 °F 30.01 in Calm     75% 0.00 in meteobridge W/m2
00:19 34.9 °F 27.7 °F 30.01 in NW 2.0 mph 8.0 mph 75% 0.00 in meteobridge W/m2
00:24 34.9 °F 27.7 °F 30.01 in Calm   9.0 mph 75% 0.00 in meteobridge W/m2
00:29 34.9 °F 27.7 °F 30.01 in Calm   1.0 mph 75% 0.00 in meteobridge W/m2
00:34 34.7 °F 27.3 °F 30.01 in Calm   2.0 mph 74% 0.00 in meteobridge W/m2
00:39 34.7 °F 27.3 °F 30.01 in Calm     74% 0.00 in meteobridge W/m2
00:44 34.7 °F 27.3 °F 30.00 in Calm   8.0 mph 74% 0.00 in meteobridge W/m2
00:49 34.7 °F 27.7 °F 30.00 in Calm     75% 0.00 in meteobridge W/m2
00:54 34.5 °F 27.5 °F 29.99 in Calm   5.0 mph 75% 0.00 in meteobridge W/m2
00:59 34.5 °F 27.1 °F 29.99 in NNW 0.9 mph 2.0 mph 74% 0.00 in meteobridge W/m2
01:04 34.3 °F 27.0 °F 29.99 in Calm   2.0 mph 74% 0.00 in meteobridge W/m2
01:09 34.3 °F 27.3 °F 29.99 in Calm     75% 0.00 in meteobridge W/m2
01:14 34.3 °F 27.0 °F 29.99 in Calm   5.0 mph 74% 0.00 in meteobridge W/m2
01:19 34.2 °F 26.8 °F 29.99 in Calm     74% 0.00 in meteobridge W/m2
01:24 34.2 °F 26.8 °F 29.99 in Calm   2.0 mph 74% 0.00 in meteobridge W/m2
01:29 34.2 °F 26.8 °F 29.99 in Calm   1.0 mph 74% 0.00 in meteobridge W/m2
01:34 34.2 °F 26.8 °F 29.99 in Calm   1.0 mph 74% 0.00 in meteobridge W/m2
01:39 34.2 °F 26.8 °F 29.99 in West 2.9 mph 4.0 mph 74% 0.00 in meteobridge W/m2
01:44 34.2 °F 26.8 °F 29.99 in Calm     74% 0.00 in meteobridge W/m2
01:49 34.2 °F 26.8 °F 29.99 in Calm     74% 0.00 in meteobridge W/m2
01:54 34.0 °F 26.2 °F 29.99 in Calm   4.0 mph 73% 0.00 in meteobridge W/m2
01:58 34.0 °F 26.2 °F 29.99 in Calm     73% 0.00 in meteobridge W/m2
02:04 34.0 °F 26.2 °F 29.99 in Calm     73% 0.00 in meteobridge W/m2
02:09 34.0 °F 26.6 °F 29.99 in Calm   1.0 mph 74% 0.00 in meteobridge W/m2
02:14 34.0 °F 26.6 °F 29.99 in NW 0.9 mph 2.0 mph 74% 0.00 in meteobridge W/m2
02:19 34.0 °F 26.6 °F 29.99 in Calm   2.0 mph 74% 0.00 in meteobridge W/m2
02:24 34.0 °F 26.6 °F 29.99 in Calm     74% 0.00 in meteobridge W/m2
02:29 33.8 °F 26.4 °F 29.99 in Calm   6.0 mph 74% 0.00 in meteobridge W/m2
02:34 33.6 °F 25.9 °F 29.98 in Calm   2.0 mph 73% 0.00 in meteobridge W/m2
02:39 33.6 °F 25.9 °F 29.98 in Calm   3.0 mph 73% 0.00 in meteobridge W/m2
02:44 33.6 °F 26.2 °F 29.98 in Calm     74% 0.00 in meteobridge W/m2
02:49 33.4 °F 26.1 °F 29.99 in Calm   1.0 mph 74% 0.00 in meteobridge W/m2
02:54 33.4 °F 26.1 °F 29.99 in WSW 0.9 mph 3.0 mph 74% 0.00 in meteobridge W/m2
02:59 33.4 °F 26.1 °F 29.99 in Calm   3.0 mph 74% 0.00 in meteobridge W/m2
03:04 33.4 °F 26.1 °F 29.99 in Calm   7.0 mph 74% 0.00 in meteobridge W/m2
03:09 33.4 °F 25.7 °F 29.99 in NW 4.9 mph 6.0 mph 73% 0.00 in meteobridge W/m2
03:14 33.4 °F 25.3 °F 29.99 in Calm   6.0 mph 72% 0.00 in meteobridge W/m2
03:19 33.4 °F 25.3 °F 29.99 in Calm   4.0 mph 72% 0.00 in meteobridge W/m2
03:24 33.3 °F 25.5 °F 29.99 in NW 2.9 mph 5.0 mph 73% 0.00 in meteobridge W/m2
03:29 33.3 °F 25.2 °F 29.99 in Calm   3.0 mph 72% 0.00 in meteobridge W/m2
03:34 33.3 °F 25.2 °F 29.99 in Calm   1.0 mph 72% 0.00 in meteobridge W/m2
03:39 33.3 °F 25.2 °F 29.99 in Calm   4.0 mph 72% 0.00 in meteobridge W/m2
03:44 33.3 °F 25.2 °F 29.99 in Calm   2.0 mph 72% 0.00 in meteobridge W/m2
03:49 33.3 °F 25.2 °F 29.99 in NW 0.9 mph 6.0 mph 72% 0.00 in meteobridge W/m2
03:54 33.1 °F 25.3 °F 29.99 in Calm     73% 0.00 in meteobridge W/m2
03:59 33.1 °F 25.3 °F 29.99 in West 2.0 mph 3.0 mph 73% 0.00 in meteobridge W/m2
04:04 33.1 °F 25.3 °F 29.99 in NNW 2.0 mph 2.0 mph 73% 0.00 in meteobridge W/m2
04:09 32.9 °F 25.5 °F 29.99 in Calm   1.0 mph 74% 0.00 in meteobridge W/m2
04:14 32.7 °F 25.3 °F 29.98 in Calm   1.0 mph 74% 0.00 in meteobridge W/m2
04:19 32.7 °F 25.0 °F 29.99 in Calm   7.0 mph 73% 0.00 in meteobridge W/m2
04:24 32.5 °F 25.2 °F 29.99 in Calm   1.0 mph 74% 0.00 in meteobridge W/m2
04:29 32.5 °F 25.2 °F 29.99 in Calm     74% 0.00 in meteobridge W/m2
04:34 32.5 °F 25.2 °F 29.99 in Calm     74% 0.00 in meteobridge W/m2
04:39 32.5 °F 25.2 °F 29.99 in Calm   5.0 mph 74% 0.00 in meteobridge W/m2
04:44 32.4 °F 25.0 °F 29.99 in Calm   6.0 mph 74% 0.00 in meteobridge W/m2
04:49 32.4 °F 25.0 °F 29.98 in Calm   1.0 mph 74% 0.00 in meteobridge W/m2
04:54 32.4 °F 25.0 °F 29.99 in Calm   6.0 mph 74% 0.00 in meteobridge W/m2
04:59 32.2 °F 24.8 °F 29.99 in Calm   8.0 mph 74% 0.00 in meteobridge W/m2
05:04 32.2 °F 25.2 °F 29.99 in WNW 2.9 mph 5.0 mph 75% 0.00 in meteobridge W/m2
05:09 32.2 °F 25.2 °F 29.99 in Calm   7.0 mph 75% 0.00 in meteobridge W/m2
05:14 32.0 °F 24.6 °F 29.99 in Calm   8.0 mph 74% 0.00 in meteobridge W/m2
05:19 31.8 °F 24.4 °F 29.99 in Calm   9.0 mph 74% 0.00 in meteobridge W/m2
05:24 31.8 °F 24.4 °F 29.99 in Calm     74% 0.00 in meteobridge W/m2
05:29 31.6 °F 24.3 °F 29.99 in Calm   6.0 mph 74% 0.00 in meteobridge W/m2
05:34 31.6 °F 24.6 °F 29.99 in NW 0.9 mph 6.0 mph 75% 0.00 in meteobridge W/m2
05:39 31.5 °F 24.1 °F 29.99 in Calm   4.0 mph 74% 0.00 in meteobridge W/m2
05:44 31.3 °F 23.9 °F 29.98 in Calm   3.0 mph 74% 0.00 in meteobridge W/m2
05:49 31.3 °F 23.9 °F 29.99 in Calm   4.0 mph 74% 0.00 in meteobridge W/m2
05:54 31.1 °F 23.7 °F 29.99 in Calm   6.0 mph 74% 0.00 in meteobridge W/m2
05:59 30.9 °F 23.5 °F 29.99 in NW 2.0 mph 7.0 mph 74% 0.00 in meteobridge W/m2
06:04 30.9 °F 23.5 °F 29.99 in Calm   1.0 mph 74% 0.00 in meteobridge W/m2
06:09 30.9 °F 23.5 °F 29.99 in Calm   1.0 mph 74% 0.00 in meteobridge W/m2
06:14 30.9 °F 23.5 °F 29.99 in Calm     74% 0.00 in meteobridge W/m2
06:19 30.7 °F 23.7 °F 30.00 in Calm   1.0 mph 75% 0.00 in meteobridge W/m2
06:24 30.7 °F 23.7 °F 30.00 in Calm   5.0 mph 75% 0.00 in meteobridge W/m2
06:29 30.6 °F 23.5 °F 30.00 in Calm     75% 0.00 in meteobridge W/m2
06:34 30.6 °F 23.5 °F 30.00 in Calm     75% 0.00 in meteobridge W/m2
06:39 30.6 °F 23.9 °F 30.00 in Calm     76% 0.00 in meteobridge W/m2
06:44 30.6 °F 23.9 °F 30.00 in Calm   3.0 mph 76% 0.00 in meteobridge W/m2
06:49 30.4 °F 23.7 °F 30.00 in Calm   3.0 mph 76% 0.00 in meteobridge W/m2
06:54 30.4 °F 23.7 °F 30.00 in Calm     76% 0.00 in meteobridge W/m2
06:59 30.4 °F 23.7 °F 30.00 in Calm     76% 0.00 in meteobridge W/m2
07:04 30.4 °F 23.7 °F 30.00 in Calm     76% 0.00 in meteobridge W/m2
07:09 30.4 °F 23.7 °F 30.00 in Calm     76% 0.00 in meteobridge W/m2
07:14 30.4 °F 23.7 °F 30.00 in Calm   3.0 mph 76% 0.00 in meteobridge W/m2
07:19 30.4 °F 23.7 °F 30.00 in Calm   2.0 mph 76% 0.00 in meteobridge W/m2
07:24 30.2 °F 23.5 °F 30.00 in Calm     76% 0.00 in meteobridge W/m2
07:29 30.2 °F 23.5 °F 30.00 in Calm   1.0 mph 76% 0.00 in meteobridge W/m2
07:34 30.0 °F 23.4 °F 30.01 in Calm     76% 0.00 in meteobridge W/m2
07:39 30.0 °F 23.7 °F 30.01 in Calm     77% 0.00 in meteobridge W/m2
07:44 30.0 °F 23.7 °F 30.00 in Calm     77% 0.00 in meteobridge W/m2
07:49 30.0 °F 23.7 °F 30.00 in Calm     77% 0.00 in meteobridge W/m2
07:54 30.0 °F 23.7 °F 30.00 in Calm     77% 0.00 in meteobridge W/m2
07:59 30.2 °F 23.9 °F 30.01 in Calm     77% 0.00 in meteobridge W/m2
08:04 30.2 °F 23.9 °F 30.00 in Calm     77% 0.00 in meteobridge W/m2
08:09 30.4 °F 24.1 °F 30.00 in Calm     77% 0.00 in meteobridge W/m2
08:14 30.4 °F 24.1 °F 30.01 in Calm     77% 0.00 in meteobridge W/m2
08:19 30.4 °F 23.7 °F 30.01 in Calm     76% 0.00 in meteobridge W/m2
08:24 30.6 °F 23.9 °F 30.03 in Calm     76% 0.00 in meteobridge W/m2
08:29 30.6 °F 23.9 °F 30.04 in NNW 0.9 mph 4.0 mph 76% 0.00 in meteobridge W/m2
08:34 30.6 °F 23.5 °F 30.03 in Calm     75% 0.00 in meteobridge W/m2
08:39 30.6 °F 23.5 °F 30.03 in Calm     75% 0.00 in meteobridge W/m2
08:44 30.6 °F 23.5 °F 30.03 in Calm     75% 0.00 in meteobridge W/m2
08:49 30.6 °F 23.5 °F 30.03 in Calm     75% 0.00 in meteobridge W/m2
08:54 30.7 °F 23.7 °F 30.03 in Calm   3.0 mph 75% 0.00 in meteobridge W/m2
08:59 30.7 °F 23.7 °F 30.04 in Calm   3.0 mph 75% 0.00 in meteobridge W/m2
09:04 30.7 °F 23.7 °F 30.03 in NW 0.9 mph 1.0 mph 75% 0.00 in meteobridge W/m2
09:09 31.1 °F 24.1 °F 30.03 in Calm   1.0 mph 75% 0.00 in meteobridge W/m2
09:14 31.5 °F 24.1 °F 30.03 in Calm   5.0 mph 74% 0.00 in meteobridge W/m2
09:19 31.6 °F 23.9 °F 30.03 in North 0.9 mph 6.0 mph 73% 0.00 in meteobridge W/m2
09:24 31.8 °F 24.1 °F 30.03 in WNW 0.9 mph 5.0 mph 73% 0.00 in meteobridge W/m2
09:29 32.2 °F 24.4 °F 30.03 in WSW 2.9 mph 5.0 mph 73% 0.00 in meteobridge W/m2
09:34 32.4 °F 24.3 °F 30.03 in Calm   5.0 mph 72% 0.00 in meteobridge W/m2
09:39 32.5 °F 24.4 °F 30.04 in Calm   3.0 mph 72% 0.00 in meteobridge W/m2
09:44 32.7 °F 24.4 °F 30.04 in Calm   1.0 mph 71% 0.00 in meteobridge W/m2
09:49 33.1 °F 24.6 °F 30.04 in Calm   1.0 mph 71% 0.00 in meteobridge W/m2
09:54 33.3 °F 24.6 °F 30.04 in Calm   6.0 mph 70% 0.00 in meteobridge W/m2
09:59 33.3 °F 24.8 °F 30.04 in Calm     71% 0.00 in meteobridge W/m2
10:04 33.4 °F 24.8 °F 30.04 in Calm   3.0 mph 70% 0.00 in meteobridge W/m2
10:09 33.4 °F 24.4 °F 30.03 in Calm   1.0 mph 69% 0.00 in meteobridge W/m2
10:13 33.6 °F 24.8 °F 30.04 in NW 2.0 mph 3.0 mph 70% 0.00 in meteobridge W/m2
10:19 33.6 °F 24.3 °F 30.04 in Calm   3.0 mph 68% 0.00 in meteobridge W/m2
10:24 33.6 °F 24.3 °F 30.04 in WNW 4.0 mph 8.0 mph 68% 0.00 in meteobridge W/m2
10:29 33.8 °F 24.4 °F 30.04 in NW 2.0 mph 8.0 mph 68% 0.00 in meteobridge W/m2
10:34 34.0 °F 24.3 °F 30.04 in NW 0.9 mph 5.0 mph 67% 0.00 in meteobridge W/m2
10:39 34.0 °F 24.3 °F 30.04 in Calm   1.0 mph 67% 0.00 in meteobridge W/m2
10:44 34.2 °F 24.4 °F 30.04 in Calm   4.0 mph 67% 0.00 in meteobridge W/m2
10:49 34.5 °F 24.6 °F 30.04 in Calm   4.0 mph 67% 0.00 in meteobridge W/m2
10:54 34.9 °F 24.6 °F 30.04 in Calm   3.0 mph 66% 0.00 in meteobridge W/m2
10:59 35.1 °F 24.4 °F 30.04 in Calm   6.0 mph 65% 0.00 in meteobridge W/m2
11:04 35.2 °F 24.3 °F 30.04 in Calm   7.0 mph 64% 0.00 in meteobridge W/m2
11:09 35.4 °F 24.4 °F 30.03 in Calm   5.0 mph 64% 0.00 in meteobridge W/m2
11:14 35.8 °F 24.1 °F 30.03 in Calm   7.0 mph 62% 0.00 in meteobridge W/m2
11:19 36.0 °F 23.9 °F 30.02 in Calm   4.0 mph 61% 0.00 in meteobridge W/m2
11:24 36.1 °F 24.1 °F 30.02 in Calm     61% 0.00 in meteobridge W/m2
11:29 36.1 °F 24.1 °F 30.02 in Calm     61% 0.00 in meteobridge W/m2
11:34 36.3 °F 23.4 °F 30.02 in Calm   11.0 mph 59% 0.00 in meteobridge W/m2
11:39 36.3 °F 23.0 °F 30.02 in Calm   5.0 mph 58% 0.00 in meteobridge W/m2
11:44 36.1 °F 23.5 °F 30.01 in Calm   7.0 mph 60% 0.00 in meteobridge W/m2
11:49 36.1 °F 23.5 °F 30.01 in Calm   6.0 mph 60% 0.00 in meteobridge W/m2
11:54 36.1 °F 23.5 °F 30.01 in North 2.9 mph 11.0 mph 60% 0.00 in meteobridge W/m2
11:59 36.1 °F 23.2 °F 30.01 in Calm   3.0 mph 59% 0.00 in meteobridge W/m2
12:04 36.5 °F 24.3 °F 30.01 in Calm     61% 0.00 in meteobridge W/m2
12:09 36.7 °F 23.7 °F 30.00 in Calm   5.0 mph 59% 0.00 in meteobridge W/m2
12:14 36.9 °F 24.3 °F 30.01 in WNW 0.9 mph 5.0 mph 60% 0.00 in meteobridge W/m2
12:19 37.0 °F 25.2 °F 30.01 in Calm   4.0 mph 62% 0.00 in meteobridge W/m2
12:24 37.2 °F 24.6 °F 30.01 in NW 4.9 mph 6.0 mph 60% 0.00 in meteobridge W/m2
12:29 37.0 °F 24.4 °F 30.00 in Calm   5.0 mph 60% 0.00 in meteobridge W/m2
12:34 36.9 °F 24.3 °F 30.00 in Calm   2.0 mph 60% 0.00 in meteobridge W/m2
12:39 37.0 °F 24.8 °F 30.00 in Calm     61% 0.00 in meteobridge W/m2
12:44 37.2 °F 25.0 °F 30.00 in WNW 2.0 mph 4.0 mph 61% 0.00 in meteobridge W/m2
12:49 37.0 °F 24.8 °F 30.00 in Calm   2.0 mph 61% 0.00 in meteobridge W/m2
12:54 37.2 °F 25.0 °F 30.00 in Calm   1.0 mph 61% 0.00 in meteobridge W/m2
12:59 37.4 °F 24.8 °F 30.00 in Calm   5.0 mph 60% 0.00 in meteobridge W/m2
13:04 37.6 °F 25.0 °F 29.99 in West 0.9 mph 3.0 mph 60% 0.00 in meteobridge W/m2
13:09 37.4 °F 23.9 °F 29.99 in NW 0.9 mph 10.0 mph 58% 0.00 in meteobridge W/m2
13:14 37.2 °F 23.4 °F 29.99 in NW 0.9 mph 9.0 mph 57% 0.00 in meteobridge W/m2
13:19 37.2 °F 23.4 °F 29.98 in Calm   5.0 mph 57% 0.00 in meteobridge W/m2
13:24 37.2 °F 23.7 °F 29.98 in Calm     58% 0.00 in meteobridge W/m2
13:29 37.4 °F 23.9 °F 29.98 in North 2.0 mph 4.0 mph 58% 0.00 in meteobridge W/m2
13:34 37.4 °F 23.5 °F 29.99 in Calm   8.0 mph 57% 0.00 in meteobridge W/m2
13:39 37.2 °F 23.4 °F 29.98 in NE 2.9 mph 9.0 mph 57% 0.00 in meteobridge W/m2
13:44 37.4 °F 22.6 °F 29.98 in WNW 2.0 mph 11.0 mph 55% 0.00 in meteobridge W/m2
13:49 37.4 °F 23.2 °F 29.99 in ENE 6.0 mph 6.0 mph 56% 0.00 in meteobridge W/m2
13:54 37.6 °F 23.7 °F 29.98 in WNW 2.0 mph 2.0 mph 57% 0.00 in meteobridge W/m2
13:59 37.4 °F 23.5 °F 29.98 in Calm     57% 0.00 in meteobridge W/m2
14:04 37.6 °F 23.7 °F 29.98 in North 0.9 mph 3.0 mph 57% 0.00 in meteobridge W/m2
14:09 37.6 °F 23.4 °F 29.98 in Calm   8.0 mph 56% 0.00 in meteobridge W/m2
14:14 37.4 °F 23.5 °F 29.98 in Calm   1.0 mph 57% 0.00 in meteobridge W/m2
14:19 37.4 °F 23.2 °F 29.98 in Calm     56% 0.00 in meteobridge W/m2
14:24 37.6 °F 22.8 °F 29.98 in NNW 4.0 mph 5.0 mph 55% 0.00 in meteobridge W/m2
14:29 37.6 °F 23.4 °F 29.98 in NNW 4.0 mph 6.0 mph 56% 0.00 in meteobridge W/m2
14:34 37.6 °F 23.4 °F 29.99 in Calm   3.0 mph 56% 0.00 in meteobridge W/m2
14:39 37.8 °F 23.9 °F 29.98 in Calm   2.0 mph 57% 0.00 in meteobridge W/m2
14:44 37.9 °F 23.7 °F 29.98 in Calm   5.0 mph 56% 0.00 in meteobridge W/m2
14:49 37.8 °F 23.5 °F 29.98 in NNE 2.9 mph 4.0 mph 56% 0.00 in meteobridge W/m2
14:54 37.8 °F 23.0 °F 29.98 in Calm   12.0 mph 55% 0.00 in meteobridge W/m2
14:59 37.4 °F 22.6 °F 29.98 in Calm   3.0 mph 55% 0.00 in meteobridge W/m2
15:04 37.2 °F 23.4 °F 29.98 in Calm   5.0 mph 57% 0.00 in meteobridge W/m2
15:09 37.6 °F 24.1 °F 29.99 in Calm   4.0 mph 58% 0.00 in meteobridge W/m2
15:14 37.6 °F 23.7 °F 29.99 in Calm   8.0 mph 57% 0.00 in meteobridge W/m2
15:19 37.6 °F 23.4 °F 29.99 in Calm   5.0 mph 56% 0.00 in meteobridge W/m2
15:24 37.2 °F 23.4 °F 29.99 in Calm   2.0 mph 57% 0.00 in meteobridge W/m2
15:29 37.2 °F 23.4 °F 29.99 in Calm     57% 0.00 in meteobridge W/m2
15:34 37.0 °F 23.2 °F 29.98 in Calm   7.0 mph 57% 0.00 in meteobridge W/m2
15:39 37.0 °F 24.1 °F 29.98 in North 4.0 mph 6.0 mph 59% 0.00 in meteobridge W/m2
15:44 36.9 °F 23.5 °F 29.99 in Calm   7.0 mph 58% 0.00 in meteobridge W/m2
15:49 36.9 °F 23.5 °F 29.99 in Calm     58% 0.00 in meteobridge W/m2
15:54 36.7 °F 23.4 °F 29.99 in Calm   1.0 mph 58% 0.00 in meteobridge W/m2
15:59 36.7 °F 23.4 °F 29.99 in Calm   1.0 mph 58% 0.00 in meteobridge W/m2
16:04 36.3 °F 22.5 °F 29.99 in Calm   8.0 mph 57% 0.00 in meteobridge W/m2
16:09 36.1 °F 22.8 °F 29.99 in West 2.0 mph 7.0 mph 58% 0.00 in meteobridge W/m2
16:14 36.0 °F 22.6 °F 30.00 in Calm   4.0 mph 58% 0.00 in meteobridge W/m2
16:19 35.8 °F 22.5 °F 30.00 in Calm   8.0 mph 58% 0.00 in meteobridge W/m2
16:24 35.6 °F 23.0 °F 30.00 in Calm   7.0 mph 60% 0.00 in meteobridge W/m2
16:29 35.4 °F 23.0 °F 30.01 in Calm   5.0 mph 60% 0.00 in meteobridge W/m2
16:34 35.2 °F 22.8 °F 30.01 in West 0.9 mph 5.0 mph 60% 0.00 in meteobridge W/m2
16:39 35.1 °F 23.0 °F 30.01 in NNW 2.9 mph 3.0 mph 61% 0.00 in meteobridge W/m2
16:44 34.9 °F 23.2 °F 30.01 in Calm   9.0 mph 62% 0.00 in meteobridge W/m2
16:49 34.5 °F 22.5 °F 30.01 in Calm     61% 0.00 in meteobridge W/m2
16:54 34.5 °F 22.8 °F 30.02 in Calm   3.0 mph 62% 0.00 in meteobridge W/m2
16:59 34.3 °F 23.0 °F 30.02 in Calm   4.0 mph 63% 0.00 in meteobridge W/m2
17:04 34.0 °F 22.3 °F 30.02 in Calm   3.0 mph 62% 0.00 in meteobridge W/m2
17:09 33.8 °F 22.5 °F 30.03 in NW 0.9 mph 1.0 mph 63% 0.00 in meteobridge W/m2
17:14 33.6 °F 22.5 °F 30.03 in Calm   3.0 mph 63% 0.00 in meteobridge W/m2
17:19 33.4 °F 22.3 °F 30.03 in Calm   4.0 mph 63% 0.00 in meteobridge W/m2
17:24 33.3 °F 22.1 °F 30.03 in NNE 0.9 mph 1.0 mph 63% 0.00 in meteobridge W/m2
17:29 33.1 °F 22.6 °F 30.03 in Calm     65% 0.00 in meteobridge W/m2
17:34 32.7 °F 22.6 °F 30.03 in NW 0.9 mph 1.0 mph 66% 0.00 in meteobridge W/m2
17:39 32.5 °F 22.1 °F 30.04 in WNW 0.9 mph 6.0 mph 65% 0.00 in meteobridge W/m2
17:44 32.4 °F 22.6 °F 30.04 in Calm     67% 0.00 in meteobridge W/m2
17:49 32.4 °F 22.6 °F 30.05 in Calm     67% 0.00 in meteobridge W/m2
17:54 32.2 °F 22.1 °F 30.05 in Calm   1.0 mph 66% 0.00 in meteobridge W/m2
17:59 31.8 °F 22.1 °F 30.05 in Calm     67% 0.00 in meteobridge W/m2
18:04 31.6 °F 21.9 °F 30.05 in Calm   2.0 mph 67% 0.00 in meteobridge W/m2
18:09 31.6 °F 22.3 °F 30.05 in Calm   1.0 mph 68% 0.00 in meteobridge W/m2
18:14 31.5 °F 22.1 °F 30.05 in Calm   1.0 mph 68% 0.00 in meteobridge W/m2
18:19 31.3 °F 21.9 °F 30.06 in Calm     68% 0.00 in meteobridge W/m2
18:24 31.1 °F 22.1 °F 30.06 in Calm     69% 0.00 in meteobridge W/m2
18:29 30.9 °F 21.9 °F 30.06 in Calm   3.0 mph 69% 0.00 in meteobridge W/m2
18:34 30.7 °F 21.7 °F 30.06 in West 2.9 mph 3.0 mph 69% 0.00 in meteobridge W/m2
18:39 30.7 °F 21.7 °F 30.07 in Calm   4.0 mph 69% 0.00 in meteobridge W/m2
18:44 30.6 °F 21.6 °F 30.07 in NNW 0.9 mph 1.0 mph 69% 0.00 in meteobridge W/m2
18:49 30.6 °F 21.6 °F 30.07 in Calm   6.0 mph 69% 0.00 in meteobridge W/m2
18:54 30.4 °F 21.4 °F 30.07 in North 4.0 mph 6.0 mph 69% 0.00 in meteobridge W/m2
18:59 30.2 °F 21.2 °F 30.08 in NNW 4.0 mph 4.0 mph 69% 0.00 in meteobridge W/m2
19:04 30.0 °F 21.0 °F 30.08 in SW 4.0 mph 7.0 mph 69% 0.00 in meteobridge W/m2
19:09 29.8 °F 20.8 °F 30.08 in Calm   4.0 mph 69% 0.00 in meteobridge W/m2
19:14 29.8 °F 20.8 °F 30.08 in Calm   5.0 mph 69% 0.00 in meteobridge W/m2
19:19 29.8 °F 20.8 °F 30.08 in Calm   9.0 mph 69% 0.00 in meteobridge W/m2
19:24 29.7 °F 20.7 °F 30.09 in WNW 2.0 mph 3.0 mph 69% 0.00 in meteobridge W/m2
19:29 29.7 °F 20.7 °F 30.09 in Calm     69% 0.00 in meteobridge W/m2
19:34 29.7 °F 20.7 °F 30.09 in NNW 8.9 mph 9.0 mph 69% 0.00 in meteobridge W/m2
19:39 29.7 °F 20.7 °F 30.09 in Calm     69% 0.00 in meteobridge W/m2
19:44 29.7 °F 20.7 °F 30.09 in Calm     69% 0.00 in meteobridge W/m2
19:49 29.7 °F 20.7 °F 30.09 in Calm   2.0 mph 69% 0.00 in meteobridge W/m2
19:54 29.7 °F 20.7 °F 30.09 in Calm   1.0 mph 69% 0.00 in meteobridge W/m2
19:59 29.5 °F 20.7 °F 30.09 in Calm   1.0 mph 69% 0.00 in meteobridge W/m2
20:04 29.5 °F 20.7 °F 30.09 in Calm   1.0 mph 69% 0.00 in meteobridge W/m2
20:09 29.5 °F 20.8 °F 30.09 in Calm     70% 0.00 in meteobridge W/m2
20:14 29.3 °F 20.7 °F 30.09 in Calm     70% 0.00 in meteobridge W/m2
20:19 29.3 °F 20.7 °F 30.09 in Calm     70% 0.00 in meteobridge W/m2
20:24 29.1 °F 20.3 °F 30.09 in Calm   2.0 mph 69% 0.00 in meteobridge W/m2
20:28 29.1 °F 20.5 °F 30.09 in Calm     70% 0.00 in meteobridge W/m2
20:34 28.9 °F 20.5 °F 30.09 in Calm     70% 0.00 in meteobridge W/m2
20:39 28.9 °F 20.1 °F 30.10 in Calm   1.0 mph 69% 0.00 in meteobridge W/m2
20:44 28.9 °F 20.7 °F 30.10 in Calm     71% 0.00 in meteobridge W/m2
20:49 28.8 °F 20.3 °F 30.10 in Calm     70% 0.00 in meteobridge W/m2
20:54 28.8 °F 20.3 °F 30.10 in Calm     70% 0.00 in meteobridge W/m2
20:59 28.8 °F 19.9 °F 30.10 in Calm     69% 0.00 in meteobridge W/m2
21:04 28.8 °F 19.9 °F 30.10 in Calm   1.0 mph 69% 0.00 in meteobridge W/m2
21:09 28.9 °F 19.8 °F 30.10 in NNE 2.0 mph 12.0 mph 68% 0.00 in meteobridge W/m2
21:14 29.1 °F 19.6 °F 30.09 in Calm   4.0 mph 67% 0.00 in meteobridge W/m2
21:19 29.5 °F 20.3 °F 30.09 in Calm   2.0 mph 68% 0.00 in meteobridge W/m2
21:24 29.5 °F 19.9 °F 30.10 in West 0.9 mph 4.0 mph 67% 0.00 in meteobridge W/m2
21:29 29.7 °F 20.1 °F 30.10 in Calm     67% 0.00 in meteobridge W/m2
21:34 29.7 °F 20.5 °F 30.10 in Calm   3.0 mph 68% 0.00 in meteobridge W/m2
21:39 29.8 °F 20.7 °F 30.10 in Calm   2.0 mph 68% 0.00 in meteobridge W/m2
21:44 29.8 °F 20.7 °F 30.10 in Calm   1.0 mph 68% 0.00 in meteobridge W/m2
21:49 29.8 °F 20.7 °F 30.11 in Calm   3.0 mph 68% 0.00 in meteobridge W/m2
21:54 29.8 °F 20.7 °F 30.11 in Calm     68% 0.00 in meteobridge W/m2
21:59 29.8 °F 20.7 °F 30.11 in Calm   4.0 mph 68% 0.00 in meteobridge W/m2
22:04 29.8 °F 20.3 °F 30.11 in Calm     67% 0.00 in meteobridge W/m2
22:09 29.8 °F 20.7 °F 30.11 in Calm   6.0 mph 68% 0.00 in meteobridge W/m2
22:14 29.8 °F 20.7 °F 30.11 in Calm   2.0 mph 68% 0.00 in meteobridge W/m2
22:19 29.8 °F 20.7 °F 30.11 in Calm   3.0 mph 68% 0.00 in meteobridge W/m2
22:24 29.8 °F 20.7 °F 30.11 in Calm     68% 0.00 in meteobridge W/m2
22:29 29.8 °F 20.7 °F 30.11 in Calm   1.0 mph 68% 0.00 in meteobridge W/m2
22:34 29.7 °F 20.5 °F 30.11 in NNE 0.9 mph 3.0 mph 68% 0.00 in meteobridge W/m2
22:39 29.7 °F 20.5 °F 30.11 in Calm   3.0 mph 68% 0.00 in meteobridge W/m2
22:44 29.5 °F 20.3 °F 30.10 in Calm   5.0 mph 68% 0.00 in meteobridge W/m2
22:49 29.5 °F 20.7 °F 30.10 in Calm   1.0 mph 69% 0.00 in meteobridge W/m2
22:54 29.3 °F 20.5 °F 30.11 in Calm   1.0 mph 69% 0.00 in meteobridge W/m2
22:59 29.1 °F 19.9 °F 30.10 in West 2.0 mph 4.0 mph 68% 0.00 in meteobridge W/m2
23:04 29.1 °F 20.3 °F 30.11 in Calm   4.0 mph 69% 0.00 in meteobridge W/m2
23:09 28.9 °F 20.1 °F 30.11 in NW 0.9 mph 2.0 mph 69% 0.00 in meteobridge W/m2
23:14 28.9 °F 20.5 °F 30.11 in Calm   3.0 mph 70% 0.00 in meteobridge W/m2
23:19 28.8 °F 19.6 °F 30.11 in Calm   8.0 mph 68% 0.00 in meteobridge W/m2
23:24 28.8 °F 19.9 °F 30.11 in Calm     69% 0.00 in meteobridge W/m2
23:29 28.6 °F 19.8 °F 30.10 in Calm   3.0 mph 69% 0.00 in meteobridge W/m2
23:34 28.6 °F 19.4 °F 30.10 in Calm   7.0 mph 68% 0.00 in meteobridge W/m2
23:39 28.4 °F 19.6 °F 30.10 in Calm   1.0 mph 69% 0.00 in meteobridge W/m2
23:44 28.4 °F 19.2 °F 30.10 in Calm   4.0 mph 68% 0.00 in meteobridge W/m2
23:49 28.2 °F 18.7 °F 30.10 in Calm   7.0 mph 67% 0.00 in meteobridge W/m2
23:54 28.0 °F 18.9 °F 30.11 in Calm     68% 0.00 in meteobridge W/m2
23:59 28.0 °F 18.9 °F 30.11 in Calm   1.0 mph 68% 0.00 in meteobridge W/m2
EllijayWeather
Compliments of Weather Underground - 2.5 mb